カタログに戻る

SCOUT B DEB

LostUNKNOWN
NORAD 29173·DEBRIS·🇺🇸 United States

打ち上げ Aug 10, 1965 から Wallops Flight Facility

Loading…

次のパス (今後24時間)

TLE

古いSource: Space-Track

元期: Apr 8, 2014, 00:09 UTC

1 29173U 65063X   14098.00683139  .00000094  00000-0  87837-3 0  9993
2 29173  69.2635 311.7270 0746991   2.1560  61.8794 11.84753377399143

AllMySatでSCOUT B DEBをリアルタイム追跡

Download on the App Store